Location: Pinhead Observatory
(34.4473°N, 118.1985°W)
Time: 20:38:30
(UTC-07:00)

Daily predictions for brighter satellites

Satellite Brightness Start Highest point End
(mag) Time Altitude Azimuth Time Altitude Azimuth Time Altitude Azimuth
Cosmos 1023 Rocket 4.5 20:28:24 10° SSW 20:33:33 82° ESE 20:38:41 10° NNE
Meteor 1-24 Rocket 3.8 20:28:32 10° S 20:34:27 72° E 20:40:12 10° NNE
NOSS 0 Rocket 4.2 20:28:16 10° NNW 20:34:30 76° WSW 20:40:42 10° SSE
SL-16 R/B 3.2 20:29:34 10° N 20:34:36 32° ENE 20:39:35 10° SE
Atlas Centaur 2 1.7 20:35:44 10° WSW 20:39:24 41° S 20:42:47 10° ESE
OAO 1 Rocket 4.5 20:36:21 10° WSW 20:41:43 76° SSE 20:47:04 10° E
Meteor 2-15 4.4 20:37:11 10° S 20:43:11 73° E 20:49:14 10° N
SL-19 R/B 4.4 20:38:29 10° SSE 20:44:07 62° ENE 20:49:36 10° N
USA 186 1.1 20:42:17 10° S 20:44:38 73° W 20:46:52 10° NNW
Cosmos 2084 3.2 20:41:46 10° SSW 20:45:50 75° ESE 20:49:44 10° NE
Helios 1B rocket 2.6 20:42:55 10° NNE 20:46:57 50° E 20:50:57 10° S
Cosmos 2219 Rocket 3.5 20:42:57 10° NW 20:48:12 40° WSW 20:53:23 10° S
Cosmos 614 Rocket 4.0 20:43:24 10° SSW 20:48:37 89° WNW 20:53:50 10° NNE
Resurs 01 Rocket 2.6 20:48:14 10° S 20:52:29 48° W 20:56:44 10° NNW
SL-8 R/B 4.3 20:48:03 10° WNW 20:52:39 48° SW 20:57:14 10° SSE
Helios 1A 3.2 20:48:56 10° SSE 20:52:57 51° ENE 20:56:58 10° N
Cosmos 1867 3.6 20:47:55 10° SSW 20:53:16 66° ESE 20:58:41 10° NE
Cosmos 2333 Rocket 3.4 20:53:33 10° NW 20:58:48 40° WSW 21:03:59 10° S
Cosmos 1850 Rocket 3.9 20:54:40 10° SSW 20:59:49 79° ESE 21:05:01 10° NNE
Cosmos 1184 Rocket 3.4 20:59:08 10° SSW 21:02:27 62° W 21:05:48 10° N
ERS-1 Rocket 3.8 21:01:46 13° SE 21:05:45 34° ENE 21:10:17 10° N
USA 234 3.6 21:01:24 10° ENE 21:07:31 42° SE 21:13:36 10° SSW
Meteor 2-1 Rocket 4.3 21:02:16 10° N 21:08:06 85° E 21:13:46 10° S
Cosmos 1356 Rocket 3.7 21:07:26 10° S 21:11:30 49° E 21:15:39 10° NNE
Cosmos 1459 Rocket 4.5 21:06:05 10° N 21:12:01 43° E 21:16:51 15° SE
Cosmos 1842 Rocket 4.5 21:11:25 10° NNW 21:15:38 48° W 21:19:48 10° SSW
YAOGAN 6 2.6 21:13:13 15° SSE 21:16:11 68° ENE 21:19:50 10° N
Cosmos 2100 Rocket 4.3 21:11:59 10° N 21:18:09 53° E 21:23:21 15° SSE
Cosmos 2297 Rocket 4.4 21:16:05 10° WSW 21:20:54 29° WNW 21:25:46 10° N
H-2A R/B 3.7 21:19:43 14° ESE 21:22:29 20° ENE 21:26:20 10° NNE
Cosmos 2061 Rocket 4.3 21:19:20 10° N 21:25:34 51° E 21:30:12 18° SSE
Cosmos 1726 3.7 21:23:18 10° NNE 21:25:58 19° ENE 21:26:41 18° E
Cosmos 2173 Rocket 4.1 21:21:47 10° N 21:27:52 58° E 21:32:33 18° SSE
Cosmos 2263 Rocket 3.4 21:28:34 19° ESE 21:29:37 20° E 21:33:37 10° NE
Cosmos 1300 4.4 21:27:29 10° NNE 21:30:03 17° ENE 21:30:38 17° E
Cosmos 1076 Rocket 3.5 21:26:39 10° S 21:31:02 89° E 21:35:24 10° N
RESURS DK-1 3.9 21:27:54 10° N 21:31:13 22° ENE 21:32:49 18° E
Cosmos 1818 3.5 21:26:51 10° NNW 21:32:19 82° ENE 21:35:50 23° SSE
Meteor 1-21 Rocket 4.2 21:27:46 10° S 21:33:28 84° E 21:39:06 10° N
ATLAS 5 CENTAUR R/B 3.7 21:29:32 10° WSW 21:33:40 32° NW 21:38:09 10° NNE
Cosmos 1408 Rocket 3.6 21:32:03 19° SSE 21:35:00 57° E 21:39:15 10° NNE
NOSS 3-4 (A) 4.4 21:29:20 10° NW 21:36:20 55° WSW 21:42:48 14° S
NOSS 3-4 (C) 4.4 21:29:25 10° NW 21:36:25 56° WSW 21:42:52 14° S
CZ-4B DEB 3.6 21:35:09 17° SSW 21:37:07 42° W 21:39:58 10° NNW
Cosmos 1939 Rocket 4.3 21:37:01 10° SSW 21:40:39 34° W 21:44:22 10° NNW
Tiangong 1 3.7 21:40:01 10° NW 21:41:43 15° N 21:43:24 10° NE
Meteor 2-17 Rocket 4.4 21:35:55 10° N 21:42:06 82° E 21:46:42 19° S
Milstar 3 Cent rocket 3.9 21:38:43 10° W 21:45:32 47° S 21:53:47 22° SE
Cosmos 2151 4.5 21:47:34 21° E 21:47:34 21° E 21:50:39 10° NE
Cosmos 2221 3.3 21:44:40 10° NNW 21:48:56 51° W 21:52:20 15° SSW
Cosmos 1725 Rocket 4.5 21:45:26 10° N 21:51:21 43° E 21:54:01 29° SE
Cosmos 1674 3.9 21:48:27 10° SSW 21:52:01 41° W 21:55:35 10° N
Cosmos 1802 Rocket 3.9 21:46:36 10° N 21:52:45 80° E 21:56:41 24° S
Cosmos 2237 Rocket 4.4 21:49:25 10° WNW 21:53:14 19° W 21:57:04 10° SW
Cosmos 1500 Rocket 4.4 21:55:08 32° ESE 21:55:34 32° E 21:59:32 10° NNE
GPS 2-05 Rocket1 2.8 21:54:17 10° WSW 21:56:51 52° SSW 21:56:51 52° SSW
Cosmos 1603 3.8 21:56:31 10° NNW 22:02:07 60° ENE 22:04:18 36° SE
Cosmos 371 Rocket 3.9 21:58:47 10° N 22:03:20 40° ENE 22:04:29 34° ESE
Cosmos 1908 4.4 22:01:05 10° NNW 22:04:43 39° W 22:06:45 22° SSW
MetOp-A 4.2 22:03:04 27° S 22:06:02 75° WSW 22:11:25 10° NNW
DMSP B5D2-2 4.5 22:01:16 10° NNE 22:06:14 42° E 22:07:11 38° SE
Cosmos 1486 Rocket 4.0 22:04:43 31° S 22:07:09 63° ESE 22:12:23 10° NNE
SPOT 5 2.8 22:05:30 39° SSE 22:07:17 78° ENE 22:12:20 10° N
ARGOS 3.1 22:05:45 33° SSE 22:08:16 87° ENE 22:13:43 10° NNW
Lacrosse 5 2.3 22:07:09 10° NNW 22:12:06 52° NE 22:13:41 37° E
Cosmos 841 Rocket 4.4 22:08:13 10° N 22:12:54 32° ENE 22:13:59 30° E
Cosmos 1242 Rocket 4.2 22:10:42 10° NNW 22:14:01 31° W 22:15:36 22° SW
Cosmos 1763 Rocket 4.0 22:09:39 10° N 22:14:30 42° ENE 22:15:31 38° E
Cosmos 1943 3.9 22:11:48 10° N 22:17:04 39° ENE 22:18:35 33° E
SPOT 1/Viking Rocket 3.5 22:15:47 45° SE 22:17:18 70° ENE 22:22:25 10° N
SL-16 R/B 3.7 22:13:44 10° NW 22:18:34 30° WSW 22:22:10 16° SSW
Cosmos 2016 Rocket 4.1 22:12:42 10° N 22:18:56 75° W 22:22:13 29° S
Cosmos 1328 Rocket 3.3 22:17:09 10° N 22:21:29 80° E 22:22:01 66° SSE
USA 245 3.2 22:22:12 59° WSW 22:22:21 60° W 22:26:15 10° NNW
YAOGAN 11 4.4 22:23:30 44° SSW 22:24:44 64° WSW 22:29:14 10° NNW
Landsat 7 3.9 22:26:21 52° ESE 22:26:56 57° ENE 22:31:37 10° N
OAO 1 Rocket 4.4 22:22:06 10° W 22:27:29 84° N 22:29:33 39° E
Cosmos 1151 Rocket 3.4 22:23:18 10° N 22:27:26 47° ENE 22:27:26 47° ENE
Atlas Centaur 2 3.4 22:25:05 10° WSW 22:25:43 13° WSW 22:25:43 13° WSW
Cosmos 1515 Rocket 3.5 22:23:16 10° N 22:27:35 65° E 22:27:42 64° E
H-2A R/B 3.3 22:28:08 27° ENE 22:28:08 27° ENE 22:31:33 10° NNE
Cosmos 1743 Rocket 3.7 22:27:28 48° SSW 22:28:33 70° W 22:32:52 10° N
Delta 2 Rocket 4.0 22:26:25 10° WSW 22:32:11 86° SSE 22:35:16 29° E
Cosmos 1703 4.2 22:33:10 39° NE 22:33:10 39° NE 22:36:04 10° NNE
Cosmos 2228 Rocket 3.1 22:31:55 10° N 22:36:29 76° W 22:37:05 64° SSW
SL-08 RB Rocket 4.3 22:38:09 43° SW 22:39:07 50° W 22:43:35 10° NNW
Terra 2.0 22:41:47 56° E 22:41:53 56° ENE 22:46:33 10° N
Cosmos 2233 Rocket 3.9 22:37:05 10° N 22:43:17 72° E 22:44:36 55° SE
Meteor 1-11 4.4 22:48:16 41° SSW 22:50:20 71° W 22:56:09 10° N
USA 234 4.1 22:44:15 10° NNE 22:50:29 49° NW 22:56:42 10° WSW
CZ-4 R/B 4.3 22:46:20 10° NNE 22:50:16 47° ENE 22:50:16 47° ENE
Cosmos 1626 3.1 22:53:53 44° N 22:53:53 44° N 22:56:32 10° N
Cosmos 1503 Rocket 3.8 22:52:52 77° S 22:53:15 86° ESE 22:58:27 10° NNE
Cosmos 332 Rocket 4.5 22:49:11 10° NNW 22:53:50 45° WSW 22:54:27 42° SW
Cosmos 2058 3.3 22:57:17 60° WNW 22:57:17 60° WNW 23:01:14 10° N
Meteor 2-12 Rocket 4.3 22:51:11 10° N 22:57:16 79° E 22:58:08 65° SSE
Cosmos 1726 4.3 22:58:32 10° NW 23:01:07 18° W 23:01:19 18° W
H-2A R/B 2.8 23:00:21 39° SW 23:01:28 44° W 23:06:38 10° NNW
Cosmos 304 Rocket 4.3 22:59:43 10° N 23:03:52 48° NE 23:03:52 48° NE
RESURS DK-1 4.2 23:05:48 10° NW 23:08:44 24° W 23:08:44 24° W
Meteor 1-27 4.3 23:03:56 10° NNW 23:09:41 67° W 23:10:25 61° SW
CZ-4B R/B 3.6 23:06:37 10° NNE 23:11:22 66° ENE 23:11:22 66° ENE
Spot 4 4.3 23:13:21 55° NE 23:13:21 55° NE 23:17:34 10° N
Cosmos 2263 Rocket 3.1 23:10:09 24° WSW 23:13:09 44° WNW 23:18:28 10° N
Cosmos 540 Rocket 3.8 23:08:35 10° N 23:13:14 53° NE 23:13:14 53° NE
Tiangong 1 4.5 23:15:34 10° NW 23:15:40 11° NW 23:15:40 11° NW
deb Chang Zheng 4 4.4 23:20:26 10° N 23:24:10 50° NW 23:24:10 50° NW
Cosmos 2285 Rocket 3.8 23:24:43 10° NNW 23:31:07 87° WSW 23:31:24 82° S
CZ-2C R/B 4.4 23:35:01 33° ENE 23:35:01 33° ENE 23:39:58 10° N
Cosmos 2034 Rocket 4.1 23:30:08 10° N 23:36:19 60° ENE 23:36:19 60° ENE
Cosmos 1455 4.2 23:35:29 10° NNW 23:37:32 27° NW 23:37:32 27° NW
Cosmos 1891 Rocket 4.4 23:36:07 10° N 23:41:55 75° NE 23:41:55 75° NE
Cosmos 1844 Rocket 3.2 23:47:58 50° NE 23:47:58 50° NE 23:52:09 10° NNE
Lacrosse 5 4.0 23:51:04 10° WNW 23:52:53 17° W 23:52:53 17° W
